Tillbaka till svenska Fidonet
English   Information   Debug  
FILM   0/18
FNEWS_PUBLISH   4926
FN_SYSOP   42201
FN_SYSOP_OLD1   71952
FTP_FIDO   0/2
FTSC_PUBLIC   0/13972
FUNNY   0/4886
GENEALOGY.EUR   0/71
GET_INFO   105
GOLDED   0/408
HAM   4620/16660
HOLYSMOKE   0/6791
HOT_SITES   0/1
HTMLEDIT   0/71
HUB203   466
HUB_100   264
HUB_400   39
HUMOR   0/29
IC   0/2851
INTERNET   0/424
INTERUSER   0/3
IP_CONNECT   719
JAMNNTPD   0/233
JAMTLAND   0/47
KATTY_KORNER   0/41
LAN   0/16
LINUX-USER   0/19
LINUXHELP   0/1155
LINUX   0/22300
LINUX_BBS   0/957
mail   18.68
mail_fore_ok   249
MENSA   0/341
MODERATOR   0/102
MONTE   0/992
MOSCOW_OKLAHOMA   0/1245
MUFFIN   0/783
MUSIC   0/321
N203_STAT   938
N203_SYSCHAT   313
NET203   321
NET204   69
NET_DEV   0/10
NORD.ADMIN   0/101
NORD.CHAT   0/2572
NORD.FIDONET   189
NORD.HARDWARE   0/28
NORD.KULTUR   0/114
NORD.PROG   0/32
NORD.SOFTWARE   0/88
NORD.TEKNIK   0/58
NORD   0/453
OCCULT_CHAT   0/93
OS2BBS   0/787
OS2DOSBBS   0/580
OS2HW   0/42
OS2INET   0/37
OS2LAN   0/134
OS2PROG   0/36
OS2REXX   0/113
OS2USER-L   207
OS2   0/4830
OSDEBATE   0/18996
PASCAL   0/490
PERL   0/457
PHP   0/45
POINTS   0/405
POLITICS   0/29554
POL_INC   0/14731
PSION   103
R20_ADMIN   1133
R20_AMATORRADIO   0/2
R20_BEST_OF_FIDONET   16
R20_CHAT   0/896
R20_DEPP   0/3
R20_DEV   400
R20_ECHO2   1830
R20_ECHOPRES   0/35
R20_ESTAT   0/719
R20_FIDONETPROG...
...RAM.MYPOINT
  0/2
R20_FIDONETPROGRAM   0/22
R20_FIDONET   0/248
R20_FILEFIND   0/24
R20_FILEFOUND   0/22
R20_HIFI   0/3
R20_INFO2   3723
R20_INTERNET   0/12940
R20_INTRESSE   0/60
R20_INTR_KOM   0/99
R20_KANDIDAT.CHAT   42
R20_KANDIDAT   28
R20_KOM_DEV   112
R20_KONTROLL   0/13360
R20_KORSET   0/18
R20_LOKALTRAFIK   0/24
R20_MODERATOR   0/1852
R20_NC   76
R20_NET200   245
R20_NETWORK.OTH...
...ERNETS
  0/13
R20_OPERATIVSYS...
...TEM.LINUX
  0/44
R20_PROGRAMVAROR   0/1
R20_REC2NEC   534
R20_SFOSM   0/341
R20_SF   0/108
R20_SPRAK.ENGLISH   0/1
R20_SQUISH   107
R20_TEST   2
R20_WORST_OF_FIDONET   20
RAR   0/9
RA_MULTI   106
RA_UTIL   0/162
REGCON.EUR   0/2068
REGCON   0/13
SCIENCE   0/1206
SF   0/239
SHAREWARE_SUPPORT   0/5146
SHAREWRE   0/14
SIMPSONS   0/169
STATS_OLD1   0/2539.065
STATS_OLD2   0/2530
STATS_OLD3   0/2395.095
STATS_OLD4   0/1692.25
SURVIVOR   0/495
SYSOPS_CORNER   0/3
SYSOP   0/84
TAGLINES   0/112
TEAMOS2   0/4530
TECH   0/2617
TEST.444   0/105
TRAPDOOR   0/19
TREK   0/755
TUB   0/290
UFO   0/40
UNIX   0/1316
USA_EURLINK   0/102
USR_MODEMS   0/1
VATICAN   0/2740
VIETNAM_VETS   0/14
VIRUS   0/378
VIRUS_INFO   0/201
VISUAL_BASIC   0/473
WHITEHOUSE   0/5187
WIN2000   0/101
WIN32   0/30
WIN95   0/4291
WIN95_OLD1   0/70272
WINDOWS   0/1517
WWB_SYSOP   0/419
WWB_TECH   0/810
ZCC-PUBLIC   0/1
ZEC   4

 
4DOS   0/134
ABORTION   0/7
ALASKA_CHAT   0/506
ALLFIX_FILE   0/1313
ALLFIX_FILE_OLD1   0/7997
ALT_DOS   0/152
AMATEUR_RADIO   0/1039
AMIGASALE   0/14
AMIGA   0/331
AMIGA_INT   0/1
AMIGA_PROG   0/20
AMIGA_SYSOP   0/26
ANIME   0/15
ARGUS   0/924
ASCII_ART   0/340
ASIAN_LINK   0/651
ASTRONOMY   0/417
AUDIO   0/92
AUTOMOBILE_RACING   0/105
BABYLON5   0/17862
BAG   135
BATPOWER   0/361
BBBS.ENGLISH   0/382
BBSLAW   0/109
BBS_ADS   0/5290
BBS_INTERNET   0/507
BIBLE   0/3563
BINKD   0/1119
BINKLEY   0/215
BLUEWAVE   0/2173
CABLE_MODEMS   0/25
CBM   0/46
CDRECORD   0/66
CDROM   0/20
CLASSIC_COMPUTER   0/378
COMICS   0/15
CONSPRCY   0/899
COOKING   41444
COOKING_OLD1   0/24719
COOKING_OLD2   0/40862
COOKING_OLD3   0/37489
COOKING_OLD4   0/35496
COOKING_OLD5   9370
C_ECHO   0/189
C_PLUSPLUS   0/31
DIRTY_DOZEN   0/201
DOORGAMES   0/2285
DOS_INTERNET   0/196
duplikat   6102
ECHOLIST   0/18295
EC_SUPPORT   0/318
ELECTRONICS   0/359
ELEKTRONIK.GER   1534
ENET.LINGUISTIC   0/13
ENET.POLITICS   0/4
ENET.SOFT   0/11701
ENET.SYSOP   34296
ENET.TALKS   0/32
ENGLISH_TUTOR   0/2000
EVOLUTION   0/1335
FDECHO   0/217
FDN_ANNOUNCE   0/7068
FIDONEWS   25062
FIDONEWS_OLD1   0/49742
FIDONEWS_OLD2   0/35949
FIDONEWS_OLD3   0/30874
FIDONEWS_OLD4   0/37224
FIDO_SYSOP   12922
FIDO_UTIL   0/180
FILEFIND   0/209
FILEGATE   0/212
Möte HAM, 16660 texter
 lista första sista föregående nästa
Text 4092, 876 rader
Skriven 2010-10-15 05:30:50 av Amsat List (1:323/120.0)
Ärende: [keps]  orb10287.amsa
=============================
[keps]  orb10287.amsa

Return-Path: <keps-bounces@amsat.org>
X-Rcpt: craig.healy@chowda.com
X-UIDL: 1287133960.5866

SB KEPS @ AMSAT  $ORB10287.O
Orbital Elements  10287.OSCAR

HR AMSAT ORBITAL ELEMENTS FOR OSCAR SATELLITES
FROM WA5QGD FORT WORTH,TX October 14, 2010
BID: ORB10287.O
TO ALL RADIO AMATEURS BT

Satellite: AO-07
Catalog number: 07530
Epoch time:      10286.55530713
Element set:     901
Inclination:      101.3999 deg
RA of node:       297.8228 deg
Eccentricity:    0.0012211
Arg of perigee:   042.0549 deg
Mean anomaly:     318.1460 deg
Mean motion:   12.53579950 rev/day
Decay rate:       -2.7e-07 rev/day^2
Epoch rev:           64328
Checksum:              292

Satellite: FO-29
Catalog number: 24278
Epoch time:      10287.68459766
Element set:     416
Inclination:      098.5161 deg
RA of node:       100.3244 deg
Eccentricity:    0.0350687
Arg of perigee:   173.7322 deg
Mean anomaly:     186.8382 deg
Mean motion:   13.52953585 rev/day
Decay rate:       -3.4e-07 rev/day^2
Epoch rev:           69926
Checksum:              345

Satellite: SO-33
Catalog number: 25509
Epoch time:      10286.79765595
Element set:     813
Inclination:      031.4337 deg
RA of node:       197.7733 deg
Eccentricity:    0.0354791
Arg of perigee:   247.0163 deg
Mean anomaly:     109.2697 deg
Mean motion:   14.28330746 rev/day
Decay rate:        4.2e-07 rev/day^2
Epoch rev:           62502
Checksum:              323

Satellite: RS-22
Catalog number: 27939
Epoch time:      10287.63996136
Element set:     632
Inclination:      097.8728 deg
RA of node:       147.9459 deg
Eccentricity:    0.0014519
Arg of perigee:   045.0533 deg
Mean anomaly:     315.1852 deg
Mean motion:   14.63462222 rev/day
Decay rate:       1.30e-06 rev/day^2
Epoch rev:           37642
Checksum:              319

Satellite: VO-52
Catalog number: 28650
Epoch time:      10285.29329997
Element set:    0620
Inclination:      097.6779 deg
RA of node:       334.0756 deg
Eccentricity:    0.0025807
Arg of perigee:   253.5434 deg
Mean anomaly:     106.2946 deg
Mean motion:   14.81821383 rev/day
Decay rate:       -7.0e-08 rev/day^2
Epoch rev:           29403
Checksum:              328

Satellite: SO-67
Catalog number: 35870
Epoch time:      10287.85349817
Element set:     194
Inclination:      097.3175 deg
RA of node:       333.7380 deg
Eccentricity:    0.0004337
Arg of perigee:   055.8857 deg
Mean anomaly:     053.2199 deg
Mean motion:   15.21107435 rev/day
Decay rate:      1.087e-05 rev/day^2
Epoch rev:            5964
Checksum:              334

Satellite: HO-68
Catalog number: 36122
Epoch time:      10287.65690675
Element set:     754
Inclination:      100.4555 deg
RA of node:       346.8012 deg
Eccentricity:    0.0007863
Arg of perigee:   065.1810 deg
Mean anomaly:     295.0130 deg
Mean motion:   13.16282137 rev/day
Decay rate:       -4.5e-07 rev/day^2
Epoch rev:            3993
Checksum:              294

/EX
SB KEPS @ AMSAT  $ORB10287.D
Orbital Elements  10287.MICROS

HR AMSAT ORBITAL ELEMENTS FOR THE MICROSATS
FROM WA5QGD FORT WORTH,TX October 14, 2010
BID: ORB10287.D
TO ALL RADIO AMATEURS BT

Satellite: UO-11
Catalog number: 14781
Epoch time:      10287.70360708
Element set:     364
Inclination:      098.0401 deg
RA of node:       339.7133 deg
Eccentricity:    0.0008463
Arg of perigee:   206.7133 deg
Mean anomaly:     153.3666 deg
Mean motion:   14.79842566 rev/day
Decay rate:      -1.45e-06 rev/day^2
Epoch rev:           42948
Checksum:              309

Satellite: AO-16
Catalog number: 20439
Epoch time:      10287.47231717
Element set:      17
Inclination:      098.3474 deg
RA of node:       240.7714 deg
Eccentricity:    0.0010800
Arg of perigee:   167.5332 deg
Mean anomaly:     192.6120 deg
Mean motion:   14.31877791 rev/day
Decay rate:        3.5e-07 rev/day^2
Epoch rev:            8245
Checksum:              286

Satellite: LO-19
Catalog number: 20442
Epoch time:      10287.80028525
Element set:     927
Inclination:      098.3105 deg
RA of node:       246.4093 deg
Eccentricity:    0.0012124
Arg of perigee:   161.2847 deg
Mean anomaly:     198.8785 deg
Mean motion:   14.32107200 rev/day
Decay rate:        1.9e-07 rev/day^2
Epoch rev:            8267
Checksum:              291

Satellite: AO-27
Catalog number: 22825
Epoch time:      10286.39007986
Element set:    0651
Inclination:      098.4984 deg
RA of node:       231.3496 deg
Eccentricity:    0.0007559
Arg of perigee:   283.5591 deg
Mean anomaly:     076.4744 deg
Mean motion:   14.29310504 rev/day
Decay rate:      -1.04e-06 rev/day^2
Epoch rev:           88893
Checksum:              341

Satellite: IO-26
Catalog number: 22826
Epoch time:      10286.85427015
Element set:    0388
Inclination:      098.4923 deg
RA of node:       232.3606 deg
Eccentricity:    0.0008031
Arg of perigee:   276.3760 deg
Mean anomaly:     083.6509 deg
Mean motion:   14.29568848 rev/day
Decay rate:        1.8e-07 rev/day^2
Epoch rev:           88911
Checksum:              329

Satellite: GO-32
Catalog number: 25397
Epoch time:      10286.70582071
Element set:    0307
Inclination:      098.3170 deg
RA of node:       287.6506 deg
Eccentricity:    0.0000263
Arg of perigee:   309.0398 deg
Mean anomaly:     051.0765 deg
Mean motion:   14.23186392 rev/day
Decay rate:       -5.4e-07 rev/day^2
Epoch rev:           63690
Checksum:              301

Satellite: NO-44
Catalog number: 26931
Epoch time:      10286.92644904
Element set:    0583
Inclination:      067.0528 deg
RA of node:       258.0437 deg
Eccentricity:    0.0005532
Arg of perigee:   271.3822 deg
Mean anomaly:     088.6657 deg
Mean motion:   14.29615936 rev/day
Decay rate:       2.22e-06 rev/day^2
Epoch rev:           47172
Checksum:              320

